This is the latest recevied weather packets stored in our database for station/object KO4IDC-13. If no packets are shown the sender has not sent any weather packets the latest 1 day(s).
| Time | Temp. | Humidity | Pressure | Rain* | Wind** | Luminosity | Snow |
|---|---|---|---|---|---|---|---|
| 1778020909 | 16.67° C | 98% | 1009.3 hPa | 7.87 mm | 0.45 m/s, 194° | 25 W/m² | - |
| 1778020606 | 16.67° C | 98% | 1009.3 hPa | 6.1 mm | 0 m/s | 45 W/m² | - |
| 1778020302 | 16.67° C | 98% | 1009 hPa | 7.87 mm | 1.34 m/s, 214° | 19 W/m² | - |
| 1778019998 | 16.67° C | 98% | 1009.4 hPa | 7.87 mm | 0.45 m/s, 225° | 28 W/m² | - |
| 1778019695 | 16.67° C | 98% | 1009.4 hPa | 4.32 mm | 0.45 m/s, 226° | 18 W/m² | - |
| 1778019392 | 16.67° C | 98% | 1009 hPa | 4.32 mm | 0.45 m/s, 216° | 26 W/m² | - |
| 1778019088 | 16.67° C | 98% | 1009.4 hPa | 3.05 mm | 0.45 m/s, 189° | 29 W/m² | - |
| 1778018786 | 16.67° C | 98% | 1009.3 hPa | 3.05 mm | 0.89 m/s, 168° | 34 W/m² | - |
| 1778018483 | 16.67° C | 98% | 1009.3 hPa | 3.05 mm | 0.45 m/s, 187° | 44 W/m² | - |
| 1778018181 | 16.67° C | 98% | 1009.3 hPa | 4.83 mm | 1.34 m/s, 171° | 30 W/m² | - |
| 1778017879 | 16.67° C | 98% | 1009.3 hPa | 4.83 mm | 0.89 m/s, 181° | 47 W/m² | - |
| 1778017577 | 16.67° C | 98% | 1009.3 hPa | 3.05 mm | 0.45 m/s, 183° | 47 W/m² | - |
| 1778017273 | 16.67° C | 98% | 1009.3 hPa | 3.05 mm | 0.89 m/s, 186° | 40 W/m² | - |
| 1778016971 | 16.67° C | 98% | 1009.4 hPa | 3.05 mm | 0.45 m/s, 204° | 42 W/m² | - |
| 1778016667 | 16.67° C | 98% | 1009.3 hPa | 3.05 mm | 0.89 m/s, 205° | 30 W/m² | - |
| 1778016363 | 16.67° C | 97% | 1009.3 hPa | 3.05 mm | 0 m/s | 41 W/m² | - |
| 1778016066 | 16.11° C | 97% | 1009.3 hPa | 3.05 mm | 0.45 m/s, 207° | 37 W/m² | - |
| 1778015758 | 16.11° C | 97% | 1009.3 hPa | 3.05 mm | 0.89 m/s, 194° | 45 W/m² | - |
| 1778015455 | 16.11° C | 97% | 1009.4 hPa | 6.1 mm | 0.45 m/s, 170° | 50 W/m² | - |
| 1778015151 | 16.11° C | 97% | 1009.5 hPa | 9.65 mm | 1.34 m/s, 193° | 56 W/m² | - |
| 1778014849 | 16.11° C | 97% | 1009.5 hPa | 8.89 mm | 0.89 m/s, 209° | 42 W/m² | - |
| 1778014546 | 16.11° C | 97% | 1009.6 hPa | 6.1 mm | 0.45 m/s, 199° | 47 W/m² | - |
| 1778014244 | 16.11° C | 97% | 1009.5 hPa | 3.05 mm | 0.45 m/s, 167° | 64 W/m² | - |
| 1778013941 | 16.11° C | 97% | 1009.5 hPa | 1.78 mm | 0 m/s | 48 W/m² | - |
| 1778013638 | 16.11° C | 97% | 1009.5 hPa | 4.83 mm | 0.89 m/s, 160° | 47 W/m² | - |
* Rain latest hour (hover to see other rain measurements)
** Current wind speed in m/s (hover to see current wind gust speed)